world map with GOOY marked

GOOY - Airport

This information may not be accurate or current and is not valid for navigation or flight planning. No warranty of fitness for any purpose is made or implied.

flag of Senegal

Donate via PayPal

Additional information is available on the NEW Great Circle Mapper

Location
City:  Dakar, Dakar, Senegal
Near (Alt.):Yoff
Name:Léopold Sédar Senghor International (Dakar Yoff International)
ICAO / IATA:GOOY / DKR

Details
Type:Airport (Aerodrome, Airfield)
Use:Public/Civil
Latitude:14°44'38"N (14.743889)
Longitude:17°28'46"W (-17.479443)
Elevation:85 ft (26 m)
Runways:2
Longest:11450 × 148 ft (3490 × 45 m)

Time
Timezone:UTC+0 (DST+2)
Local Time:

Weather
METAR:GOOY  241800Z 36011KT CAVOK 21/18 Q1012
TAF:GOOY  241730Z 2418/2524 35013KT CAVOK= TAF GBYD 241730Z 2418/2524 31010KT CAVOK

Related Locations
Nearby:
Farthest:OLJ: 12179 mi / 19600 km
Olpoi [North West Santo], Espíritu Santo Island, SAM, VU

Find:

   beyond  
but within

Other Information
Maps:
Links:
Sources:

  

Airport Diagram

Airport diagram for GOOY

Airport diagram (OBSOLETE) from NGA

 


Great Circle Mapper   Great Circle Mapper
Great Circle Mapper FAQ   Great Circle Mapper FAQ
  Karl's Home Page
KLS²   KLS² Home
   GC on Facebook
Airlines of the World   Airlines of the World
Donate via PayPal


Copyright © 2004-2017, Karl L. Swartz. All rights reserved.
All trademarks mentioned herein belong to their respective owners.

Please see credits for attribution and copyright information.

Karl Swartz <karl@kls2.com>
  Powered by FreeBSD
Valid HTML 4.01!
Labeled with ICRA
hCard Microformat
Geo Microformat